User: anonymous   Login
Location: Young's Pond
(41.2695°N, 72.7766°W)
Time: 01:29:28
(UTC-04:00)
Language:

CZ-4B R/B - Orbit

View from above orbital plane
View from above orbital plane
View from above satellite
View from above satellite

Ground track
Ground track

The orbit data is extracted from the following two-line orbital elements,

1 29093U 06015B   14304.15233278  .00017823  00000-0  61273-3 0  4390
2 29093 097.5121 024.2226 0088137 142.4282 276.1917 15.26427195470307
Epoch (UTC): 31 October 2014 03:39:21
Eccentricity: 0.0088137
inclination: 97.5121°
perigee height: 426 km
apogee height: 547 km
right ascension of ascending node: 24.2226°
argument of perigee: 142.4282°
revolutions per day: 15.26427195
mean anomaly at epoch: 276.1917°
orbit number at epoch: 47030

The dashed part of the orbit path shows where the satellite is in the earth's shadow,  

DLR